Location: Lane
(33.5226°N, 79.8788°W)
Time: 20:21:18
(UTC+00:00)

Vanguard 2 Rocket - Pass Details

Date: 04 October 2022
Orbit: 555 x 3321 km, 32.9° (Epoch: 28 November)

Event Time Altitude Azimuth Distance (km) Brightness Sun altitude
Rises 23:24:53 0° 198° (SSW) 7,200 11.7 -6.1°
Reaches altitude 10° 23:31:33 10° 185° (S) 6,268 11.2 -7.4°
Maximum altitude 23:45:05 23° 142° (SE) 4,987 10.3 -10.3°
Enters shadow 23:55:01 13° 104° (ESE) 5,183 10.1 -12.3°
